Temp_Advection
nan nan nan nan nan nan nan nan nan nan nan nan nan nan nan nan nan nan nan nan nan nan nan nan nan nan nan nan nan nan nan nan nan nan nan nan nan nan nan nan nan nan nan nan nan nan nan nan nan
nan 0 -0 -0 -0 0 -0 -0 -0 -0 0 0 -0 -0 -0 -0 -0 0 0 0 1 1 1 1 1 0 1 0 0 0 0 0 -0 0 0 -0 -0 0 0 -0 -0 -1 -1 -0 -0 0 0 -0 nan
nan 0 -0 -1 0 -0 -0 -0 -0 -0 -0 -0 -0 -1 -0 -0 0 -0 -0 -0 1 0 0 0 0 0 0 0 0 0 0 0 -0 -0 0 -0 -0 0 0 -0 -0 -0 -0 -0 -0 0 0 0 nan
nan -0 -0 -0 -1 -0 -0 -0 -0 -0 -0 -0 -0 -0 -0 0 0 -0 -0 -0 -0 -0 -0 0 0 0 0 0 0 -0 0 0 0 0 0 -0 -0 0 0 -0 -0 -0 -0 -0 -0 -0 0 -0 nan
nan -0 -0 -0 -0 -0 0 0 -0 0 0 -0 -0 -0 -0 -0 0 0 0 0 0 0 0 1 1 1 0 0 0 -0 0 0 -0 0 0 0 0 0 0 0 -0 -0 -0 0 -0 -0 0 -0 nan
nan -0 -0 -0 -0 -0 0 0 -0 0 0 0 -0 -0 -0 0 0 0 1 1 1 1 1 1 2 1 1 0 0 0 -0 0 0 0 0 0 0 0 0 0 -0 -0 -0 0 -0 -0 -0 -0 nan
nan -0 -0 -0 -0 -0 0 0 0 0 0 -0 -0 -0 0 0 0 0 0 1 0 1 1 1 2 2 1 1 0 0 0 0 0 0 0 0 0 0 0 0 0 -0 0 0 -0 -0 -0 -0 nan
nan -0 -0 -0 -0 0 0 -0 -0 0 0 0 -0 -0 -0 0 0 0 -1 -0 0 0 0 -1 0 2 1 1 1 0 0 0 0 0 0 0 0 0 0 0 0 0 0 -0 -0 -0 -0 -0 nan
nan -0 -0 -0 -0 0 0 0 -0 0 -0 -0 -0 -0 0 0 0 -0 0 0 0 -1 -1 0 -0 1 1 0 0 1 0 0 0 0 0 0 0 0 0 0 -0 0 0 -0 -0 -0 -0 -0 nan
nan -0 -0 -0 0 0 0 -0 -0 -0 -1 -0 0 0 0 -0 0 -0 -0 -0 0 0 -0 -1 -0 -0 0 0 0 0 0 0 0 0 0 0 0 0 0 0 0 0 0 0 -0 -0 -0 -0 nan
nan -0 -0 -0 0 -0 -0 0 0 -0 -0 -1 -1 -1 -0 -0 -0 0 -1 -0 -1 -1 -1 -0 0 0 0 0 0 0 0 0 0 0 0 0 0 0 0 0 0 0 0 0 0 0 0 -0 nan
nan -0 -0 0 -0 -0 -0 -0 0 0 -0 -1 -0 -1 -1 0 0 -0 -0 -1 0 -0 -1 -1 -0 0 0 0 0 0 0 0 0 0 0 -0 -0 -0 0 0 0 0 0 0 0 0 0 0 nan
nan -0 -0 -0 -0 -0 -1 -0 -0 -0 0 -0 -0 -0 -1 -1 -0 -0 0 -0 -1 -0 -1 -1 -0 -0 0 0 0 0 0 0 0 0 0 0 0 -0 0 0 0 0 0 0 0 0 0 0 nan
nan 0 0 0 0 0 -0 -0 -0 -0 1 1 -0 -0 -0 -0 -1 -1 -2 -1 -0 -0 -0 -0 0 0 0 0 0 0 -0 -0 -0 -0 0 0 -0 0 0 0 0 0 0 0 0 0 0 0 nan
nan -0 -0 -0 0 0 -0 -0 0 -1 -0 1 1 1 0 0 0 -0 -1 -1 -0 -0 0 0 0 -0 -0 0 0 0 0 -0 0 0 -0 -0 0 0 0 0 0 0 0 0 0 -0 0 0 nan
nan -0 0 -0 -0 0 -0 0 -0 -1 -1 0 1 1 -0 0 0 0 1 0 0 0 -0 0 -0 -0 0 0 0 0 0 0 0 0 -0 0 0 0 0 0 0 0 0 0 0 0 0 0 nan
nan 0 0 -0 -0 -0 0 -0 -0 -0 -1 -1 -1 -1 -0 -0 -0 -0 0 0 0 0 -0 -0 -0 0 0 0 0 -0 0 0 0 -0 -0 0 0 1 0 0 0 -0 -0 0 0 0 0 0 nan
nan 0 -0 0 -0 -0 -0 0 -0 0 -0 -0 -1 -0 -0 -1 -1 -0 -0 -0 0 0 0 -0 0 0 0 -0 -0 -0 0 0 -0 -0 -0 0 0 1 0 -0 -0 -0 0 0 0 0 0 -0 nan
nan -0 0 -0 -0 0 0 0 -0 0 -0 -0 -1 -1 -1 -0 0 0 -0 0 0 0 0 0 0 0 -0 -0 -0 0 0 0 -0 -0 0 0 0 0 0 -0 -0 0 0 0 0 0 0 -0 nan
nan -0 0 -0 -0 0 0 0 -0 -0 -1 -1 -1 -1 -0 -0 -0 -0 0 -0 -0 -0 -0 -0 -1 -0 -0 -0 0 0 0 -0 -0 0 0 0 0 0 0 0 0 0 0 0 0 -0 -0 -0 nan
nan -0 -0 0 -0 0 -0 -0 0 -0 -0 0 -0 -0 -0 -0 -0 -0 -0 -0 0 -0 -0 -1 -0 0 -0 0 1 0 -0 -0 -0 0 0 0 0 0 0 0 0 0 0 -0 -0 -0 -0 -0 nan
nan 0 0 -0 -0 0 -0 0 -0 0 0 -0 -0 0 -0 -0 -0 -0 0 -0 -0 0 1 0 1 1 1 1 0 -0 -0 -0 0 1 1 0 0 0 0 0 0 -0 -0 -0 -0 -0 -0 -0 nan
nan 0 0 0 0 -0 -0 -0 -0 -0 -0 -0 -0 -0 -1 -0 1 0 -0 0 1 1 0 1 1 1 1 1 0 0 1 0 0 1 1 0 0 1 0 0 0 0 0 -0 -1 -0 -0 -0 nan
nan -0 -1 -0 -0 -0 -0 -0 -0 -0 -0 -0 -0 -0 -0 1 0 1 1 1 1 -0 0 0 1 1 1 1 0 1 1 -0 0 1 1 0 0 0 0 0 0 1 0 -0 -0 -0 0 -0 nan
nan -0 -0 0 -0 -0 -0 -0 -0 -0 0 -0 -0 -2 -1 0 0 0 -0 -1 -1 -0 0 0 1 1 1 0 1 1 1 -0 -0 1 1 1 1 0 1 1 1 0 1 0 -0 -0 -0 0 nan
nan -0 -0 0 0 -0 -0 -0 -0 -0 -0 -1 -1 -0 1 1 0 -1 -0 0 1 1 0 1 2 1 0 1 1 1 0 -1 -0 1 1 1 1 1 1 1 1 1 0 -0 -0 -0 0 0 nan
nan -0 -0 -1 0 0 -0 -0 -0 0 -0 -0 1 1 1 0 -0 1 1 0 0 -0 0 2 1 0 1 1 0 -0 -0 -0 1 1 1 1 1 1 1 1 0 1 0 -0 -0 0 -0 0 nan
nan -0 -0 0 0 -0 -0 -0 -0 -0 0 -1 0 0 0 0 0 -0 -1 -0 -1 -0 1 1 0 0 0 -0 -0 -0 -0 0 1 1 1 1 1 0 0 0 1 1 1 0 -0 0 0 0 nan
nan 0 -0 -0 -0 0 0 -0 -0 -0 -0 0 -0 -0 -0 -0 -1 -1 -0 -0 -0 1 1 0 0 -0 -0 -0 -0 0 1 1 1 1 1 0 0 1 2 2 1 0 0 0 0 0 0 0 nan
nan nan nan nan nan nan nan nan nan nan nan nan nan nan nan nan nan nan nan nan nan nan nan nan nan nan nan nan nan nan nan nan nan nan nan nan nan nan nan nan nan nan nan nan nan nan nan nan nan
Wind_Speed
3 2 2 2 3 4 3 6 3 6 4 2 1 2 5 7 2 3 7 29 32 36 37 34 30 27 26 24 22 19 19 20 23 23 23 24 23 25 27 28 29 29 29 28 27 23 20 18 19
1 1 2 2 4 2 5 4 5 5 7 13 9 8 8 4 3 2 20 22 31 36 36 34 32 31 29 26 22 20 20 22 24 22 22 24 25 27 29 30 31 31 30 28 24 22 21 23 22
1 4 1 4 3 4 5 3 4 1 7 11 5 9 4 4 3 14 17 22 33 35 35 35 32 29 27 24 22 21 21 22 22 21 22 25 27 29 29 30 31 31 29 26 21 19 20 19 19
3 4 4 3 7 5 4 7 3 1 5 10 5 5 6 5 5 13 18 27 32 34 35 34 32 30 26 24 22 20 22 22 21 21 22 26 27 28 29 29 30 30 29 26 21 17 17 16 16
5 2 2 0 4 4 3 8 6 3 5 8 4 3 5 5 1 9 21 28 31 34 33 32 32 32 28 24 23 22 22 20 20 20 23 26 28 28 27 28 27 26 24 22 20 17 17 17 15
4 2 4 2 4 5 0 3 1 5 6 4 7 6 4 8 6 15 24 27 26 29 32 31 31 30 28 25 24 21 22 20 19 21 24 26 27 27 26 25 24 23 21 18 17 16 17 16 13
5 3 4 4 4 5 3 0 3 4 5 5 5 4 6 14 15 17 21 22 12 32 32 32 29 31 28 23 24 22 18 17 19 23 24 24 24 24 23 22 21 19 16 14 13 11 10 11 13
3 3 1 3 2 6 2 3 4 6 4 9 3 6 5 16 20 17 21 22 16 13 25 33 33 29 27 22 19 13 15 17 20 22 23 22 22 20 19 18 17 14 11 10 9 7 6 8 10
4 3 2 3 4 5 3 3 4 6 4 10 2 11 20 20 19 17 25 12 8 14 33 35 31 25 24 23 23 16 18 19 21 22 21 20 19 18 17 15 14 12 9 8 6 4 5 6 9
5 2 4 5 3 5 6 6 1 3 10 10 21 21 24 18 18 19 19 22 21 28 35 37 15 24 29 24 19 17 20 21 22 21 22 19 18 17 15 14 13 11 8 4 3 2 4 4 8
4 4 3 5 10 3 5 1 2 9 3 12 28 28 25 20 16 16 20 23 20 23 29 22 33 30 23 19 19 21 21 21 21 20 21 17 17 16 14 12 11 9 6 3 2 3 2 4 6
2 11 10 8 9 7 4 6 4 2 2 22 23 27 25 23 19 17 27 28 34 32 32 38 31 21 21 20 21 21 22 23 21 19 18 16 15 14 13 11 9 7 7 6 7 5 4 5 8
5 3 5 17 15 13 11 6 5 5 9 21 24 21 24 23 20 30 30 20 23 26 32 29 24 22 21 22 23 24 24 21 18 18 15 13 11 10 10 10 9 11 9 8 7 5 6 7 9
3 9 4 15 16 7 7 7 7 5 23 28 27 25 25 23 27 27 28 27 26 23 23 22 23 23 22 22 24 26 25 21 17 15 12 10 9 8 7 11 13 13 11 9 7 7 7 9 12
7 5 2 4 4 2 15 3 2 23 25 30 27 25 25 27 26 28 30 31 27 27 30 27 26 25 24 25 26 27 24 20 16 11 10 9 10 11 13 14 15 14 12 10 7 7 9 11 13
5 4 3 1 4 3 6 3 6 28 27 24 26 25 28 27 27 27 30 32 28 28 28 25 25 25 25 27 27 25 21 19 14 12 12 12 14 14 16 16 15 13 10 9 8 9 12 14 16
6 2 2 5 4 3 3 3 7 25 23 23 27 27 26 24 26 27 29 32 31 26 26 26 24 25 27 27 26 22 21 19 18 17 13 9 14 18 17 16 14 11 9 9 10 13 15 15 13
1 3 3 3 5 5 6 4 8 27 25 26 29 28 27 26 27 29 29 29 29 29 27 27 26 26 25 26 25 25 25 23 21 19 14 12 14 16 17 15 12 9 9 10 12 15 14 13 13
1 2 3 5 4 3 6 4 13 21 19 16 26 33 31 31 29 29 29 28 28 30 30 30 29 28 29 28 27 28 28 25 22 17 15 11 14 18 16 13 11 10 9 12 13 12 13 15 17
3 3 4 5 3 7 6 7 4 13 21 30 32 32 34 34 31 31 31 31 31 29 29 31 29 30 32 30 30 30 28 25 19 16 13 13 16 17 14 12 11 10 11 13 12 15 18 20 20
2 1 3 5 6 1 5 5 3 4 10 21 24 33 33 42 40 36 36 37 34 33 29 28 30 34 34 32 31 30 27 24 21 17 16 16 17 15 14 12 10 11 12 13 18 20 20 21 21
2 3 3 4 1 3 1 3 5 6 13 12 23 31 37 43 43 41 42 41 42 39 35 33 33 36 36 33 33 33 32 31 28 21 18 18 16 14 13 13 13 12 14 16 20 25 23 23 18
6 1 4 3 4 2 3 3 5 1 7 17 19 30 41 46 46 47 46 42 41 41 40 37 38 39 36 35 35 34 33 30 22 20 19 18 17 18 17 16 14 13 11 16 18 21 22 19 17
3 1 5 4 3 1 3 3 5 5 12 6 20 32 43 46 43 46 46 44 44 43 43 41 39 38 35 34 35 36 33 31 27 22 22 21 20 20 18 16 13 11 13 17 19 21 20 18 16
4 5 3 4 4 4 3 2 8 8 7 8 11 27 38 46 45 44 45 46 45 43 43 42 41 39 35 32 33 33 34 31 29 24 24 25 24 23 23 18 15 16 17 18 16 17 19 18 15
1 6 4 3 3 4 4 4 6 4 8 17 19 18 25 37 43 44 46 46 43 38 38 42 42 38 36 33 34 31 34 30 28 26 26 28 27 26 22 20 17 19 19 14 19 23 20 18 17
2 3 3 6 3 3 3 6 10 7 6 8 8 16 17 27 36 43 41 41 40 36 35 34 33 36 31 31 31 29 31 31 31 28 27 28 27 24 23 18 23 25 14 16 17 16 18 18 17
3 5 1 2 3 3 4 4 5 6 5 6 7 14 17 22 26 32 36 34 33 31 24 22 26 25 28 29 30 31 32 31 31 30 29 29 26 23 23 29 27 23 13 15 14 17 18 19 20
2 2 2 4 4 4 1 5 6 7 6 7 2 10 15 18 19 19 24 29 30 29 30 25 25 25 27 29 31 31 31 32 30 29 30 32 31 30 31 26 19 13 13 13 16 19 20 21 19
3 5 5 4 4 1 3 6 4 6 7 7 11 9 14 19 17 18 22 26 27 30 32 31 27 25 29 32 32 31 30 29 28 28 30 30 29 24 20 17 16 11 12 16 19 19 20 20 19
Wind_Direction
307 296 175 184 65 65 246 258 234 294 337 6 178 60 96 76 90 232 159 169 176 167 167 170 169 167 164 157 150 143 140 136 132 131 128 123 117 115 113 110 106 105 106 104 100 94 86 84 89
342 135 146 106 90 74 266 258 247 277 127 111 84 77 43 62 54 147 153 168 170 166 167 167 169 169 163 155 147 146 141 138 133 130 126 119 118 116 114 111 109 108 109 108 102 95 89 90 92
228 152 97 89 108 195 231 251 263 309 99 355 14 57 62 42 28 160 166 167 169 169 170 171 169 165 159 151 147 147 142 138 130 131 126 121 122 119 117 115 111 107 107 107 104 100 93 92 89
140 142 71 87 234 268 244 298 269 306 45 53 29 50 72 100 85 172 167 168 172 174 174 172 166 160 158 150 146 142 141 137 135 135 130 127 126 123 121 117 111 108 106 106 102 97 96 89 84
141 107 80 245 279 252 242 296 283 108 94 26 50 49 66 28 212 178 172 173 178 180 174 172 168 161 154 146 145 142 140 138 138 135 134 132 130 126 124 117 114 109 106 107 106 96 91 86 81
106 100 55 300 256 277 291 356 4 109 103 72 83 108 69 127 154 163 175 176 185 186 173 168 163 154 143 145 141 138 143 137 141 141 139 135 132 128 125 119 114 110 108 104 96 90 83 77 73
108 87 194 234 254 286 216 276 125 105 107 93 143 73 108 126 149 164 168 177 206 173 167 165 160 142 135 140 138 131 133 146 146 142 139 136 132 129 126 122 117 112 109 97 86 82 81 65 61
151 99 250 244 244 267 250 12 327 134 154 118 102 143 145 148 147 143 133 108 98 119 133 134 128 125 132 130 118 129 147 148 143 141 141 136 130 127 124 121 115 115 107 93 94 96 65 36 28
186 71 272 277 295 275 180 96 237 334 77 80 37 126 149 161 161 146 152 150 154 96 117 121 119 126 122 132 149 174 155 148 143 145 140 136 133 129 127 125 125 127 123 119 106 60 30 20 7
132 136 243 217 229 228 200 175 300 77 85 68 100 126 144 152 162 172 169 149 146 145 123 125 144 153 154 160 173 162 155 153 151 146 142 133 136 136 140 139 141 146 143 129 86 9 1 352 350
166 198 204 260 243 164 151 327 46 120 108 156 146 148 150 156 151 158 171 165 152 160 148 163 152 153 164 173 171 168 159 155 153 152 147 142 144 141 147 151 149 168 165 169 210 232 282 320 333
240 240 247 187 176 135 147 132 49 156 28 165 158 150 147 146 146 152 139 151 143 142 152 152 160 170 172 172 173 168 167 167 166 163 159 165 161 159 163 171 181 191 194 196 202 227 250 279 308
209 273 268 179 151 146 152 99 93 19 131 154 154 161 157 156 158 154 151 149 150 166 161 167 178 175 177 178 177 170 173 176 179 175 170 175 180 179 183 197 194 205 203 203 206 225 266 293 311
278 268 165 166 167 182 158 87 107 128 154 151 161 163 164 169 159 159 165 164 164 167 171 175 180 181 184 183 179 178 184 189 182 181 185 192 194 208 195 198 204 200 200 217 236 256 275 299 313
331 72 35 210 184 83 100 93 232 158 164 159 169 170 168 171 181 172 165 173 177 179 181 183 186 185 188 185 183 187 190 194 197 193 200 208 218 221 217 213 213 217 227 241 253 276 297 307 310
63 26 91 300 129 81 97 226 140 163 165 173 178 179 178 185 192 183 179 177 181 184 186 183 184 187 189 187 189 192 201 203 199 198 192 201 219 224 224 226 230 227 234 254 275 294 300 308 308
5 137 187 351 162 72 169 162 142 177 181 180 180 183 185 191 198 194 190 193 192 188 192 190 191 191 188 193 197 207 210 204 202 194 203 233 234 230 229 227 223 227 240 263 290 298 300 307 315
288 5 25 189 236 178 230 191 162 182 187 183 184 185 190 196 200 198 196 195 198 203 204 199 197 195 193 201 213 215 212 211 208 214 232 247 229 227 220 218 224 235 258 279 300 300 309 323 333
165 156 228 231 225 209 238 178 187 188 187 190 192 191 197 205 202 200 197 195 196 201 203 203 203 203 206 212 213 215 215 215 213 225 247 241 222 221 218 224 229 246 277 294 299 307 326 334 335
313 51 346 298 16 190 218 228 193 179 200 193 197 203 207 207 206 205 201 200 200 201 205 208 210 211 212 221 219 217 216 218 224 238 237 221 222 223 221 227 243 270 286 298 313 328 330 329 331
213 77 262 243 340 222 97 326 162 192 208 224 208 211 216 210 207 207 204 205 203 204 207 211 216 218 218 220 219 220 221 224 228 231 230 221 221 221 227 243 263 278 291 322 333 327 324 325 324
308 54 255 257 347 223 98 254 278 203 205 200 216 214 213 214 212 209 208 208 208 209 210 213 213 219 220 218 222 229 231 229 236 250 247 223 221 226 238 248 261 279 305 326 326 318 316 319 318
233 46 282 239 198 88 335 93 263 301 223 222 209 207 209 214 209 209 212 214 215 214 212 216 218 219 218 220 225 231 233 234 243 251 235 224 223 225 235 248 267 286 304 319 319 313 311 311 307
158 112 37 36 70 45 267 138 282 198 223 205 222 207 211 214 210 212 213 216 218 219 216 218 221 224 220 222 226 232 232 234 242 246 231 227 230 234 243 253 265 264 287 301 303 307 309 311 312
81 58 337 3 13 221 334 48 238 247 247 220 218 209 206 212 211 212 210 213 218 219 220 221 225 225 221 225 230 235 239 240 246 244 238 231 233 237 240 243 241 262 279 304 303 311 313 313 312
155 158 160 208 181 265 343 243 255 233 307 254 239 209 213 216 213 213 214 215 219 219 221 226 229 224 223 229 230 238 236 242 246 241 240 235 235 233 234 236 257 278 290 296 315 306 303 314 311
175 206 170 105 27 60 252 294 307 332 59 75 151 182 197 207 212 218 218 216 215 218 226 231 225 222 234 229 230 231 231 236 245 240 234 232 229 230 232 248 264 272 289 290 294 301 309 320 313
171 163 66 5 144 234 281 278 246 315 322 149 181 181 194 199 206 214 220 223 220 232 238 227 225 234 226 225 228 230 232 238 243 238 235 228 226 229 250 261 260 284 276 290 293 307 311 315 314
139 217 83 120 141 173 212 263 217 243 272 298 257 217 204 197 200 209 219 222 227 233 228 235 228 226 225 230 233 235 236 233 232 230 230 230 238 255 253 250 271 258 275 279 295 305 307 314 310
179 187 153 134 238 166 157 268 250 249 271 270 268 226 218 208 208 217 219 221 225 226 228 230 231 236 235 234 235 236 231 223 226 234 238 242 244 241 236 267 258 253 266 283 294 297 308 308 309
Height
1508 1509 1509 1510 1521 1526 1526 1514 1501 1499 1494 1492 1491 1491 1492 1496 1499 1507 1498 1501 1503 1506 1512 1517 1522 1526 1528 1530 1533 1536 1539 1540 1542 1544 1544 1544 1547 1548 1548 1550 1551 1554 1556 1556 1557 1558 1559 1560 1561
1508 1509 1511 1510 1528 1536 1525 1505 1500 1496 1494 1494 1492 1492 1493 1499 1499 1500 1502 1505 1509 1509 1513 1518 1520 1523 1527 1529 1532 1537 1540 1542 1542 1546 1546 1546 1549 1549 1551 1552 1553 1556 1558 1558 1559 1560 1562 1562 1564
1508 1509 1511 1517 1533 1531 1522 1502 1497 1495 1497 1499 1499 1497 1499 1503 1503 1502 1504 1506 1510 1512 1515 1518 1521 1525 1529 1530 1533 1538 1540 1543 1543 1548 1548 1548 1552 1551 1554 1555 1556 1558 1561 1561 1561 1563 1564 1565 1565
1508 1511 1514 1522 1522 1514 1506 1498 1496 1496 1497 1498 1502 1503 1506 1507 1507 1507 1508 1510 1512 1514 1515 1518 1521 1524 1529 1530 1535 1540 1543 1544 1546 1549 1550 1549 1554 1555 1557 1557 1558 1560 1562 1563 1563 1565 1567 1567 1566
1508 1511 1519 1521 1516 1506 1501 1497 1493 1496 1498 1501 1499 1505 1506 1509 1508 1509 1510 1512 1514 1514 1516 1520 1522 1524 1529 1532 1537 1539 1543 1545 1548 1550 1552 1553 1556 1557 1561 1560 1561 1562 1564 1566 1566 1567 1569 1569 1570
1508 1512 1524 1526 1512 1502 1499 1498 1496 1493 1497 1501 1502 1503 1509 1510 1509 1510 1513 1516 1517 1514 1512 1520 1521 1522 1526 1534 1538 1540 1544 1546 1550 1552 1554 1557 1558 1560 1562 1563 1563 1564 1565 1567 1567 1570 1570 1570 1571
1507 1515 1519 1514 1512 1503 1498 1496 1495 1494 1495 1498 1502 1505 1511 1511 1510 1511 1514 1516 1515 1506 1516 1519 1521 1524 1529 1539 1540 1542 1545 1548 1551 1554 1557 1560 1561 1563 1564 1565 1565 1566 1568 1569 1569 1571 1572 1571 1571
1506 1511 1513 1511 1510 1508 1498 1499 1501 1497 1495 1499 1502 1505 1513 1513 1511 1513 1514 1517 1516 1506 1508 1512 1523 1528 1535 1540 1543 1547 1548 1553 1554 1556 1559 1562 1565 1567 1568 1568 1568 1569 1570 1570 1571 1572 1570 1572 1571
1506 1514 1517 1509 1505 1499 1498 1499 1499 1501 1499 1493 1502 1504 1510 1512 1513 1513 1514 1513 1514 1521 1521 1525 1529 1535 1537 1542 1547 1552 1553 1554 1557 1559 1561 1564 1566 1568 1569 1570 1570 1571 1571 1570 1572 1573 1571 1572 1572
1505 1512 1507 1501 1498 1497 1496 1495 1499 1502 1501 1505 1506 1508 1511 1514 1515 1513 1514 1515 1518 1522 1524 1531 1534 1536 1540 1547 1549 1554 1555 1555 1558 1562 1563 1565 1568 1568 1570 1571 1569 1571 1571 1572 1572 1574 1572 1573 1571
1504 1505 1497 1496 1495 1496 1498 1499 1501 1504 1505 1508 1507 1508 1509 1511 1512 1517 1518 1519 1520 1521 1524 1530 1534 1539 1544 1548 1551 1554 1555 1558 1561 1564 1565 1567 1568 1568 1570 1570 1570 1572 1572 1572 1573 1573 1574 1573 1571
1503 1496 1495 1495 1496 1495 1495 1498 1501 1502 1504 1506 1506 1507 1510 1512 1512 1516 1519 1522 1521 1526 1530 1533 1538 1542 1546 1549 1552 1555 1559 1559 1562 1563 1565 1568 1569 1570 1570 1570 1571 1573 1573 1571 1573 1573 1573 1573 1572
1499 1496 1490 1491 1493 1491 1490 1494 1498 1503 1503 1507 1510 1511 1511 1514 1517 1520 1523 1525 1527 1529 1532 1535 1539 1542 1546 1549 1552 1554 1559 1562 1563 1564 1565 1567 1568 1570 1570 1570 1572 1574 1572 1572 1572 1572 1573 1573 1572
1494 1491 1490 1494 1493 1491 1489 1492 1498 1507 1507 1507 1509 1509 1512 1515 1516 1521 1523 1524 1528 1531 1534 1537 1539 1543 1546 1550 1552 1554 1558 1561 1563 1565 1565 1567 1567 1570 1569 1570 1571 1572 1571 1573 1572 1570 1573 1570 1570
1492 1495 1495 1495 1494 1493 1491 1504 1504 1506 1510 1509 1511 1512 1513 1515 1516 1518 1521 1524 1527 1530 1534 1537 1539 1542 1546 1550 1552 1555 1557 1560 1562 1563 1565 1566 1568 1567 1568 1569 1570 1570 1570 1572 1570 1569 1570 1569 1569
1496 1495 1502 1490 1493 1495 1497 1507 1505 1507 1510 1512 1513 1515 1514 1515 1516 1519 1522 1525 1528 1531 1533 1536 1539 1542 1545 1549 1553 1555 1557 1560 1561 1564 1564 1565 1567 1566 1567 1568 1569 1567 1568 1571 1569 1568 1569 1565 1566
1503 1508 1500 1498 1495 1498 1500 1503 1504 1507 1509 1512 1513 1514 1514 1516 1518 1520 1522 1526 1529 1531 1534 1538 1540 1541 1544 1548 1552 1555 1557 1559 1562 1563 1563 1563 1564 1565 1565 1567 1568 1566 1566 1569 1567 1567 1568 1563 1561
1509 1507 1504 1505 1497 1499 1502 1499 1500 1503 1506 1507 1509 1512 1513 1514 1516 1519 1522 1525 1529 1532 1534 1537 1540 1542 1544 1549 1551 1553 1556 1558 1560 1562 1561 1560 1562 1563 1563 1565 1565 1565 1565 1566 1564 1566 1562 1559 1557
1500 1503 1507 1503 1493 1498 1495 1497 1498 1499 1504 1508 1509 1510 1510 1510 1513 1517 1519 1523 1527 1530 1532 1535 1538 1540 1543 1546 1547 1550 1552 1555 1557 1558 1559 1558 1560 1562 1562 1563 1562 1563 1562 1563 1562 1561 1558 1555 1554
1499 1499 1503 1493 1489 1496 1495 1496 1498 1497 1496 1499 1502 1505 1507 1510 1511 1513 1517 1520 1523 1526 1529 1531 1534 1536 1539 1543 1546 1549 1551 1553 1554 1555 1556 1556 1560 1560 1560 1560 1560 1558 1560 1560 1558 1556 1554 1553 1552
1498 1500 1502 1502 1496 1493 1496 1501 1496 1497 1497 1499 1500 1502 1504 1502 1505 1509 1513 1515 1520 1521 1523 1526 1529 1533 1536 1541 1544 1547 1548 1549 1550 1551 1553 1555 1557 1557 1557 1557 1557 1557 1558 1557 1554 1554 1553 1553 1552
1500 1494 1497 1499 1503 1511 1496 1519 1500 1494 1494 1495 1494 1496 1498 1499 1503 1506 1508 1511 1512 1515 1521 1524 1526 1531 1534 1538 1541 1541 1543 1544 1546 1549 1551 1552 1554 1554 1554 1555 1555 1555 1554 1553 1552 1554 1552 1549 1548
1497 1491 1495 1493 1499 1503 1504 1514 1501 1492 1493 1487 1488 1490 1492 1494 1497 1501 1503 1505 1510 1515 1518 1521 1526 1529 1533 1535 1536 1538 1539 1542 1545 1546 1547 1549 1550 1550 1551 1552 1553 1554 1553 1554 1554 1554 1552 1549 1547
1488 1491 1497 1500 1504 1517 1503 1507 1505 1494 1483 1482 1479 1482 1486 1490 1494 1496 1501 1506 1509 1513 1517 1519 1523 1526 1529 1531 1532 1533 1535 1538 1541 1542 1543 1544 1546 1548 1549 1550 1550 1549 1551 1550 1549 1550 1550 1548 1545
1491 1501 1523 1525 1531 1523 1502 1506 1494 1474 1471 1472 1472 1474 1477 1483 1489 1493 1496 1498 1503 1508 1512 1517 1519 1521 1525 1526 1528 1529 1530 1534 1535 1537 1539 1541 1543 1545 1546 1546 1546 1546 1543 1548 1549 1547 1546 1545 1542
1493 1500 1524 1523 1533 1522 1505 1511 1490 1470 1471 1466 1466 1469 1474 1478 1483 1488 1492 1495 1499 1507 1509 1511 1515 1519 1521 1522 1524 1526 1527 1530 1531 1534 1535 1538 1539 1541 1542 1542 1541 1544 1542 1545 1546 1546 1543 1541 1539
1492 1500 1495 1519 1528 1534 1514 1497 1478 1467 1468 1468 1469 1470 1472 1475 1479 1483 1487 1492 1498 1504 1505 1508 1511 1514 1515 1517 1520 1521 1524 1526 1527 1529 1532 1535 1536 1536 1536 1536 1538 1538 1539 1540 1540 1539 1538 1536 1534
1485 1486 1503 1512 1517 1521 1513 1504 1498 1475 1468 1472 1472 1470 1472 1475 1478 1481 1485 1490 1494 1497 1501 1504 1507 1508 1510 1511 1514 1516 1519 1521 1523 1525 1528 1530 1532 1532 1534 1533 1531 1532 1534 1534 1533 1533 1532 1531 1529
1490 1492 1494 1501 1515 1521 1529 1509 1481 1475 1470 1469 1469 1470 1471 1473 1476 1480 1483 1487 1491 1495 1498 1500 1501 1502 1503 1505 1508 1510 1512 1514 1517 1520 1523 1524 1525 1525 1524 1526 1527 1527 1527 1528 1530 1529 1528 1527 1525
1480 1484 1492 1516 1507 1516 1526 1509 1471 1470 1469 1469 1467 1469 1471 1473 1475 1478 1481 1484 1487 1490 1492 1493 1495 1496 1497 1501 1503 1505 1508 1511 1514 1516 1516 1517 1518 1521 1524 1526 1525 1522 1524 1527 1527 1525 1524 1522 1520